Tracking 25648 objects as of 17-May-2022
HD Live streaming from Space Station
objects crossing your sky now

BUCCANEER RMM

Track BUCCANEER RMM now!
10-day predictions


NORAD ID: 43014
Int'l Code: 2017-073B
Perigee: 461.2 km
Apogee: 782.2 km
Inclination: 97.7 °
Period: 97.0 minutes
Semi major axis: 6992 km
RCS: Unknown
Launch date: November 18, 2017
Source: United States (US)
Launch site: AIR FORCE WESTERN TEST RANGE (AFWTR)
aabbcc
Your satellite tracking list
Your tracking list is empty




NASA's NSSDC Master Catalog

Two Line Element Set (TLE):
1 43014U 17073B   22136.52576704  .00013696  00000-0  10095-2 0  9992
2 43014  97.6713  31.4682 0229576 289.4248  68.2288 14.84690510242458
Source of the keplerian elements: AFSPC